Location: Haliburton Scout Reserve
(45.0900°N, 78.3200°W)
Time: 03:28:40
(UTC-04:00)

AO-73 - Visible Passes

Search period start: 23 September 2023 00:00
Search period end: 03 October 2023 00:00
Orbit: 570 x 640 km, 97.7° (Epoch: 22 September)

Date Brightness Start Highest point End Pass type
(mag) Time Alt. Az. Time Alt. Az. Time Alt. Az.
23 Sep ? 03:39:11 10° NE 03:42:25 21° E 03:42:25 21° E visible
23 Sep ? 05:14:21 10° N 05:18:32 42° WNW 05:19:16 38° W visible
24 Sep ? 03:51:29 10° NE 03:55:06 27° E 03:55:06 27° E visible
24 Sep ? 05:27:10 10° N 05:31:07 32° WNW 05:31:56 29° W visible
25 Sep ? 04:03:53 10° NNE 04:07:45 36° E 04:07:45 36° E visible
25 Sep ? 05:40:04 10° NNW 05:43:40 24° WNW 05:44:36 23° W visible
26 Sep ? 04:16:22 10° NNE 04:20:24 49° E 04:20:24 49° E visible
26 Sep ? 05:53:03 10° NNW 05:56:09 19° WNW 05:57:14 17° W visible
27 Sep ? 04:28:54 10° NNE 04:33:01 65° ENE 04:33:01 65° ENE visible
27 Sep ? 06:06:11 10° NNW 06:08:37 15° WNW 06:09:52 13° W visible
28 Sep ? 04:41:28 10° NNE 04:45:38 77° N 04:45:38 77° N visible
28 Sep ? 06:19:44 10° NW 06:21:02 11° WNW 06:22:21 10° WNW visible
29 Sep ? 03:20:07 10° ENE 03:21:22 13° ENE 03:21:22 13° ENE visible
29 Sep ? 04:54:05 10° N 04:58:13 64° NW 04:58:13 64° NW visible
30 Sep ? 03:31:56 10° NE 03:33:57 17° ENE 03:33:57 17° ENE visible
30 Sep ? 05:06:44 10° N 05:10:47 48° WNW 05:10:47 48° WNW visible
01 Oct ? 03:44:02 10° NE 03:46:30 21° ENE 03:46:30 21° ENE visible
01 Oct ? 05:19:26 10° N 05:23:20 36° WNW 05:23:20 36° WNW visible
02 Oct ? 03:56:17 10° NNE 03:59:02 27° ENE 03:59:02 27° ENE visible
02 Oct ? 05:32:11 10° N 05:35:53 28° WNW 05:35:53 28° WNW visible
